Regional Weather Roundup
Issued by NWS

Home | Current Version | Previous Version | Text Only | Print | Product List | Glossary On
Versions: 1 2 3 4 5 6 7 8 9 10 11 12 13 14 15 16 17 18 19 20 21 22 23 24 25 26 27 28 29 30 31 32 33 34 35 36 37 38 39 40 41 42 43 44 45 46 47 48 49 50
905
ASUS44 KEWX 282111
RWRTX
SOUTH TEXAS REGIONAL WEATHER ROUNDUP
NATIONAL WEATHER SERVICE AUSTIN/SAN ANTONIO TX
400 PM CDT THU JUL 28 2016

NOTE: "FAIR" INDICATED FEW OR NO CLOUDS BELOW 12,000 FEET WITH NO
SIGNIFICANT WEATHER AND/OR OBSTRUCTIONS TO VISIBILITY.

* - THESE STATIONS ARE NOT NWS OR FAA STATIONS...AND ARE NOT SUBJECT
    TO NWS AND FAA QUALITY CONTROL.

TXZ171-172-183>190-282200-
TEXAS HILL COUNTRY AND EDWARDS PLATEAU

CITY           SKY/WX    TMP DP  RH WIND       PRES   REMARKS
JUNCTION       SUNNY     93  61  34 VRB6      29.97F HX  93
*LLANO         MOSUNNY   97  63  32 S8        29.98F HX  98
BURNET         MOSUNNY   96  61  31 VRB5      29.99F HX  96
*HORSESHOE BAY SUNNY     94  64  37 S5        29.96S HX  95
*KERRVILLE     MOSUNNY   94  67  41 S12       29.99F HX  98
*FREDERICKSBRG PTSUNNY   92  60  34 SE6G16    29.99S HX  91
*ROCKSPRINGS   SUNNY     91  63  38 S9        30.03F HX  92
*BOERNE STAGE  CLOUDY    90  64  43 CALM      29.99S HX  91
*CASTROVILLE   CLOUDY    96  65  35 SE5       29.94F HX  99
HONDO          PTSUNNY   95  69  42 SE10      29.94F HX 100
*UVALDE        MOSUNNY   92  71  49 CALM      29.92F HX  98
DEL RIO        MOSUNNY   96  66  37 SE8       29.90F HX  99
LAUGHLIN AFB   NOT AVBL
CARRIZO SPRGS  CLOUDY    97  66  36 SE14      29.87F HX 100
*EAGLE PASS    CLEAR     82  73  74 CALM      29.93F
$$

TXZ173-191>194-202-209-217>225-228-282200-
CENTRAL AND SOUTH CENTRAL TEXAS

CITY           SKY/WX    TMP DP  RH WIND       PRES   REMARKS
GEORGETOWN     MOSUNNY   95  66  38 SE5       29.96S HX  98
AUSTIN/BERGSTM TSTM      79  72  79 SE22G32   30.00R
AUSTIN/MABRY   CLOUDY    83  71  67 SE13G28   30.00R
*AUSTIN/EXEC     N/A     82  70  65 S14G21    29.99R
*LAGO VISTA    CLOUDY    96  63  33 SE12G18   29.99S HX  97
SAN MARCOS     PTSUNNY   77  70  78 SE20      30.02R
NEW BRAUNFELS  CLOUDY    79  72  79 E15       29.97R HAZE
RANDOLPH AFB   NOT AVBL
PT SAN ANTONIO NOT AVBL
SAN ANTONIO    CLOUDY    91  69  48 E23G32    29.96R HX  96
STINSON FIELD  CLOUDY    87  71  58 E18       29.92S HX  93
*PLEASANTON    CLOUDY    88  66  48 E16G25    29.92R HX  91
*LA GRANGE     TSTM      76  74  95 CALM      30.01R
*GIDDINGS      LGT RAIN  73  71  95 CALM      30.06F
*GONZALES      DRIZZLE   80  77  91 E8        29.99R
$$

TXZ163>164-176>182-195>201-210>213-226-227-235-282200-
SOUTHEAST TEXAS

CITY           SKY/WX    TMP DP  RH WIND       PRES   REMARKS
COLLEGE STN    CLOUDY    79  72  79 S14       30.01S
*BRYAN         RAIN      75  75  99 S6        30.03S
*CALDWELL      DRIZZLE   73  73 100 S12G17    30.04F
*CROCKETT      CLOUDY    81  73  78 S14G26    30.02R
*BRENHAM       RAIN      76  74  96 SW5       30.01F
HUNTSVILLE     LGT RAIN  77  73  87 SW6       30.01F
CONROE         CLOUDY    81  72  74 W8        30.00F
HOUSTON BUSH   LGT RAIN  79  74  84 NW3       30.00F
HOUSTON HOBBY  CLOUDY    85  71  63 W7        29.99F HX  90
*HOUSTON SW AP CLOUDY    83  74  74 CALM      30.00S
PEARLAND       CLOUDY    89  72  56 W5        30.00F HX  96
HOUSTON HOOKS  LGT RAIN  77  75  93 CALM      30.00F
ELLINGTON FLD  NOT AVBL
SUGAR LAND     CLOUDY    81  74  79 NW3       29.99F
*HOUSTON EXEC  CLOUDY    81  75  83 CALM      30.02F
*CLEVELAND MUN CLOUDY    80  76  88 SW5       30.01F
*WHARTON       CLOUDY    87  73  62 CALM      30.00S HX  94
*COLUMBUS      FAIR      77  73  88 N3        30.00F
*EAGLE LAKE    CLOUDY    82  74  78 N6        30.00F
$$

TXZ214>216-236>238-282200-
THE UPPER TEXAS COAST

CITY           SKY/WX    TMP DP  RH WIND       PRES   REMARKS
*ORANGE        CLOUDY    81  73  76 CALM      30.01F
PORT ARTHUR    CLOUDY    83  74  74 NW8       29.99F
GALVESTON      MOSUNNY   89  76  65 VRB7      29.99F HX 100
ANGLETON       PTSUNNY   88  77  69 NW6       29.99S HX 100
*BAY CITY      CLOUDY    81  76  84 CALM      29.99F
PALACIOS       CLOUDY    84  76  76 E7        29.97F HX  93
$$

TXZ229>234-239>247-282200-
TEXAS COASTAL BEND AND RIO GRANDE PLAINS

CITY           SKY/WX    TMP DP  RH WIND       PRES   REMARKS
VICTORIA       CLOUDY    88  77  69 SE10      29.97S HX 100
*BEEVILLE      CLOUDY    76  74  93 NE5       29.94F
ROCKPORT       SUNNY     90  75  61 SE14      29.94F HX 100
*PORT ARANSAS  CLOUDY    89  78  69 SE15G21   29.95F HX 102
*PORT LAVACA   CLOUDY    85  79  83 CALM      29.97S HX  98
*INGLESIDE     SUNNY     93  74  53 SE18      29.94S HX 103
CORPUS CHRISTI PTSUNNY   93  73  52 SE20G26   29.93F HX 102
CORPUS NAS     PTSUNNY   92  76  59 S16       29.94F HX 104
*ROBSTOWN      MOSUNNY   96  73  48 SE20G26   29.92S HX 105
ALICE          TSTM      79  74  84 S10       29.89S
KINGSVILLE NAS PTSUNNY   86  73  65 S13       29.91F THUNDER HX  93
COTULLA        CLOUDY    87  71  58 SE16G24   29.91S HX  93
*FAITH RANCH   SUNNY     99  66  34 S8G17     29.87F HX 102
LAREDO         CLOUDY    99  67  35 SE15G21   29.85F HX 103
$$

TXZ248>255-282200-
DEEP SOUTH TEXAS

CITY           SKY/WX    TMP DP  RH WIND       PRES   REMARKS
BROWNSVILLE    MOSUNNY   94  73  50 SE20G26   29.93F HX 103
PORT ISABEL    MOSUNNY   94  73  50 SE21G28   29.92F HX 103
*SOUTH PADRE     N/A     90  79  70 SE9       29.95S HX 105
HARLINGEN      MOSUNNY   99  70  38 SE24G32   29.89F HX 106
*HEBBRONVILLE  MOSUNNY   99  61  28 S14G26    29.88F HX 100
MCALLEN        SUNNY    102  67  31 SE18G29   29.88F HX 107
*WESLACO       MOSUNNY   92  11   5 S16G24    29.88F
FALFURRIAS     CLOUDY    88  68  52 E10       29.90F HX  91
EDINBURG       PTSUNNY   91  73  56 SE13      29.88F HX  99
*ZAPATA        SUNNY    100  63  29 S9G18     29.85F HX 102
$$

TXZ213>215-236>238-242>244-246-247-251-254-255-282200-
CMAN STATIONS

STATION/POSITION TIME  TEMP    WIND        PRES    WAVE
                       AIR SEA DIR/SP/G            HT/PER
                 (UTC) (F)     (DEG/KT/KT) (MB)    (FT/S)
SABINE PASS      2000   87 87  200/ 12/ 16 1017.0
SEA RIM ST PARK  2100   87     230/ 10/ 14 1016.1
NORTH JETTY/GLS  2000   88 87                N/A
MORGANS POINT    2000   82 87  300/  5/  7 1016.0
MISSION/ARANSAS  2000   87                 1015.0
PORT ARANSAS     2100   85 89  130/ 15/ 18 1014.3
MALAQUITE BEACH  2000   85 86  120/ 13/ 15 1014.8
PORT ISABEL      2000   87 86  160/ 11/ 16 1014.2
$$

GMZ080-GMZ150>470-282200-
OFFSHORE BUOY REPORTS

STATION/POSITION TIME  TEMP    WIND        PRES    WAVE
                       AIR SEA DIR/SP/G            HT/PER
                 (UTC) (F)     (DEG/KT/KT) (MB)    (FT/S)
20 E GALVESTON   2050   86 87  270/  6/  8 1015.5    3/ 5
90 E PT ARANSAS  2050   86 87  140/ 10/ 12 1015.0    3/ 6
35 NE PT MANSFLD 2050   85 85  160/ 12/ 16 1013.9    3/ 7
200 E PT ISABEL  2050   86 87  130/ 10/ 12 1015.1    3/ 6
$$




USA.gov is the U.S. government's official web portal to all federal, state and local government web resources and services.